User: anonymous   Login
Location: Karcze
(52.0945°N, 22.4786°E)
Time: 13:50:04
(UTC+00:00)
Language:

Cosmos 407 Rocket - Orbit

View from above orbital plane
View from above orbital plane
View from above satellite
View from above satellite

Ground track
Ground track

The orbit data is extracted from the following two-line orbital elements,

1  5175U 71035B   20262.46991968 +.00000037 +00000-0 +20882-4 0  9992
2  5175 074.0495 180.6866 0028784 095.2211 265.2229 14.37991272585633
Epoch (UTC): 18 September 2020 11:16:41
Eccentricity: 0.0028784
inclination: 74.0495°
perigee height: 744 km
apogee height: 786 km
right ascension of ascending node: 180.6866°
argument of perigee: 95.2211°
revolutions per day: 14.37991272
mean anomaly at epoch: 265.2229°
orbit number at epoch: 58563

The dashed part of the orbit path shows where the satellite is in the earth's shadow,  

DLR